Theta_e
316 315 318 320 321 321 321 321 321 320 319 319 320 320 320 323 324 323 323 324 325 325 325 324 324 324 325 325 326 327 328 328 327 328 327 326 326 325 326 327 326 327 326 326 326 326 328 329 327 325 320 319 322 321 323 326 324 323 323 324 324 325 326
316 315 318 321 321 321 320 320 320 319 319 319 319 320 321 322 323 322 322 323 324 324 324 323 322 322 323 324 325 326 327 327 326 327 326 326 326 326 326 326 326 327 325 323 324 323 326 328 329 327 320 314 315 316 320 325 325 325 325 326 325 323 325
318 319 319 319 320 319 319 319 319 319 319 318 317 318 320 320 319 318 318 320 321 322 322 322 321 320 321 322 324 324 324 323 322 323 323 323 324 325 326 326 326 326 322 318 319 320 321 322 324 323 317 314 316 315 316 320 322 324 325 325 325 323 324
320 320 318 318 319 319 320 320 319 318 318 318 317 316 317 316 315 314 312 313 317 319 320 320 319 319 319 319 321 321 319 318 317 318 318 319 321 323 325 325 324 321 317 315 315 316 317 317 320 318 313 313 315 313 313 315 317 321 323 324 324 324 325
320 318 317 319 320 320 320 319 319 317 316 316 316 316 315 315 315 313 310 309 311 313 315 316 316 316 317 318 319 318 316 316 316 317 317 317 318 319 319 319 317 315 314 314 314 314 314 314 315 315 312 313 315 313 312 313 313 315 317 318 319 320 322
319 317 317 318 319 320 319 318 317 316 315 314 315 316 316 316 315 313 309 309 309 310 309 310 311 312 314 316 317 316 315 315 315 315 316 315 315 315 314 313 313 313 313 313 313 313 313 312 312 312 312 313 314 313 313 312 312 312 311 312 312 312 315
319 317 316 317 319 320 318 316 316 315 315 313 313 315 315 315 314 311 309 310 311 310 308 306 307 308 308 310 314 316 316 314 314 314 314 313 313 312 312 312 312 311 310 311 311 312 312 312 311 311 311 312 312 312 312 312 311 311 311 310 309 308 310
318 317 316 316 319 320 317 315 315 314 313 313 312 314 314 314 313 310 309 310 311 310 308 305 305 305 304 304 308 312 314 314 313 313 312 312 311 311 311 311 310 308 309 310 311 311 312 311 311 311 310 312 313 311 310 311 310 310 311 310 308 307 308
319 317 315 316 318 319 316 314 314 314 312 312 312 313 314 313 310 309 309 309 309 310 309 307 305 304 304 304 304 306 309 313 313 313 312 311 310 308 308 309 308 308 309 310 310 310 310 310 310 310 310 311 313 315 316 316 313 310 309 309 308 307 308
319 317 315 315 317 319 317 315 314 313 312 311 312 313 313 312 311 309 309 308 308 309 309 309 307 305 305 305 304 303 306 309 312 312 312 311 309 307 306 307 307 308 309 310 309 309 309 309 309 309 310 309 311 315 319 319 315 311 309 308 308 308 308
320 318 316 314 316 318 318 316 316 313 311 311 312 313 313 312 311 311 310 309 310 310 310 310 308 306 305 305 305 305 305 306 309 311 311 311 310 308 307 308 309 309 309 309 309 309 310 309 309 309 310 310 310 311 313 314 313 312 309 308 308 308 307
320 319 318 315 315 317 317 317 317 315 313 311 311 312 313 312 310 310 311 311 311 312 312 311 310 308 307 306 305 304 305 305 305 307 309 310 309 307 306 308 309 310 310 309 309 309 309 309 309 310 310 310 310 309 308 310 311 310 308 308 307 306 306
320 319 318 317 315 316 317 318 318 317 316 313 312 312 313 313 311 309 309 309 311 312 312 312 311 310 310 309 307 305 305 306 305 305 306 308 309 307 306 307 307 307 308 308 308 309 308 308 309 309 309 308 308 307 307 307 308 308 308 307 306 306 305
320 319 319 318 317 317 318 319 319 319 318 316 315 313 312 313 312 310 309 308 309 309 310 310 311 311 311 311 311 309 307 307 307 307 306 307 308 308 308 308 307 306 305 306 307 308 308 308 308 308 307 307 307 306 306 306 306 306 306 306 305 304 303
320 319 319 318 318 318 319 320 319 319 319 318 317 316 314 314 314 313 311 310 310 309 309 310 311 312 311 312 312 312 311 310 310 310 309 308 308 308 309 308 308 308 307 305 304 306 307 307 308 307 307 306 306 305 305 305 305 305 305 305 304 302 299
320 319 319 319 318 317 319 320 320 320 320 319 318 318 316 316 315 315 315 314 314 313 312 311 312 312 312 311 312 312 312 311 310 311 312 310 309 308 308 308 307 308 308 307 305 304 306 307 307 307 307 306 305 304 303 303 303 303 303 302 301 298 296
320 320 319 319 319 318 319 320 320 319 319 318 318 317 317 317 317 317 317 317 318 317 316 314 313 313 313 312 312 312 312 312 311 311 311 312 311 310 309 308 307 307 307 307 306 305 305 307 307 307 307 305 301 300 300 299 299 299 298 297 297 296 295
320 320 320 320 320 319 319 319 320 320 319 319 318 317 316 317 317 318 318 318 319 318 318 317 316 315 314 314 313 313 312 313 312 312 311 312 312 312 311 310 309 308 307 307 307 306 305 305 306 306 306 303 299 297 296 296 295 295 294 294 295 295 295
320 321 320 320 319 318 319 319 320 320 319 320 319 318 318 317 317 317 319 319 319 319 319 318 317 317 316 316 315 314 314 314 313 313 312 312 312 312 312 311 310 309 309 308 307 307 306 305 305 305 304 301 298 296 295 294 293 293 294 294 295 295 295
320 321 321 321 320 319 319 320 320 320 319 319 319 319 319 318 316 317 318 319 319 319 319 319 318 318 318 317 317 316 316 315 314 314 313 313 313 312 311 311 311 310 310 309 308 307 307 306 305 304 303 301 299 298 296 294 293 294 295 295 295 295 295
320 320 321 321 321 320 319 320 320 320 320 319 320 320 319 319 318 317 318 319 319 319 319 319 319 319 319 318 318 318 317 317 316 315 314 314 313 313 312 311 311 310 310 310 309 307 307 306 305 304 303 301 299 298 296 295 295 295 296 296 296 296 296
320 320 320 320 320 320 320 320 319 320 320 320 320 319 319 319 318 317 318 320 320 320 320 319 319 318 318 318 318 318 318 318 317 316 315 314 314 314 312 312 311 311 310 310 309 308 307 306 305 304 303 301 300 298 297 296 296 296 297 297 297 297 296
319 319 320 319 319 319 318 318 319 319 319 319 319 318 317 317 318 318 319 320 320 320 319 319 319 318 317 317 317 318 318 318 318 317 316 315 315 314 313 312 312 311 310 310 309 308 307 306 304 303 303 302 300 299 298 298 298 297 297 297 297 297 296
319 320 320 320 320 319 319 320 320 320 321 320 320 319 318 319 320 320 320 320 320 320 320 320 320 320 319 319 318 318 318 318 317 317 316 315 315 315 314 313 312 311 310 309 308 307 306 305 304 303 303 302 301 299 299 299 299 298 298 298 297 297 296
320 321 321 320 319 318 318 319 318 318 318 318 318 318 318 319 319 319 319 319 319 320 320 320 320 320 320 319 319 319 318 318 318 317 317 317 316 316 315 314 312 311 310 308 308 306 305 305 304 304 304 302 300 299 299 300 300 299 298 298 297 297 296
315 316 316 315 314 313 313 314 313 312 312 312 312 313 315 316 316 317 318 318 319 320 320 320 320 320 320 320 319 319 319 318 318 318 318 317 317 317 316 313 311 310 309 308 307 306 305 305 304 304 303 302 300 300 300 300 300 300 298 298 297 297 296
309 310 310 309 309 310 310 310 309 308 308 308 308 309 310 312 313 314 315 315 316 319 319 320 319 319 319 319 319 318 318 318 318 318 318 318 317 317 315 313 311 309 308 306 306 307 306 305 304 304 303 302 301 300 300 300 300 300 299 298 297 297 297
307 307 307 308 308 308 307 307 307 307 307 307 307 307 307 308 309 311 312 313 314 315 317 318 318 317 316 316 316 316 317 317 317 317 317 318 317 316 314 312 310 309 308 307 307 307 306 305 304 304 302 301 300 300 300 300 300 300 299 297 297 297 297
307 307 307 307 307 306 306 306 306 306 306 306 305 305 306 307 307 307 309 311 312 313 314 316 316 316 315 314 314 315 315 315 315 315 316 315 315 313 312 310 309 308 307 306 306 306 305 304 303 302 301 301 300 300 300 300 299 299 298 297 297 297 296
307 307 307 307 307 306 306 306 306 306 305 305 304 304 304 305 305 306 307 308 310 311 313 315 316 316 315 315 314 314 314 314 314 313 312 311 310 309 308 308 307 307 306 306 305 304 303 303 302 301 301 301 300 300 300 299 298 297 297 296 296 295 295
306 307 307 307 307 307 307 306 305 305 304 304 304 304 303 303 303 303 304 305 307 309 312 315 316 316 315 314 314 313 313 313 312 312 310 308 307 307 307 306 306 306 306 305 304 303 302 301 301 301 300 300 300 299 298 297 297 296 295 294 294 293 293
306 306 307 307 307 307 307 306 306 306 306 306 306 305 304 303 303 303 303 303 305 307 310 314 316 316 315 314 313 313 313 312 310 309 308 307 306 305 305 305 304 304 304 303 302 301 301 300 300 300 299 299 298 298 297 296 295 295 294 294 293 293 293
305 306 306 307 307 307 307 306 306 306 306 306 306 306 306 305 305 305 304 304 305 308 310 313 315 314 313 312 312 312 312 310 309 307 306 305 304 303 303 302 302 301 302 301 301 301 300 300 299 298 298 297 296 296 295 294 294 293 293 293 292 292 292
305 305 305 305 305 305 305 305 305 306 307 307 307 307 307 306 306 305 305 305 308 309 310 312 313 312 311 310 310 310 310 309 308 306 304 304 303 302 302 301 300 299 299 299 299 298 297 297 296 296 296 295 294 294 293 293 293 292 292 292 292 292 291
305 305 305 305 305 305 305 305 305 306 307 308 308 308 307 307 306 306 306 307 308 309 310 311 310 309 309 308 307 308 308 307 306 305 304 302 301 300 299 299 298 297 296 296 296 296 296 295 295 295 294 294 293 293 293 292 292 292 292 291 291 291 291
305 305 305 305 304 305 304 304 304 304 306 308 308 307 307 307 306 306 306 308 309 309 310 309 307 306 306 305 305 305 305 305 304 304 303 301 299 298 297 297 296 296 296 296 295 295 295 294 294 293 293 293 293 293 292 292 292 291 291 291 290 290 290
305 304 305 305 304 304 304 304 303 303 304 306 307 307 307 306 306 306 307 308 308 308 307 306 305 304 303 304 304 303 304 303 302 302 301 300 298 297 296 295 295 295 295 295 295 294 294 293 293 293 293 293 292 292 292 291 291 290 290 290 290 289 289
Wind_Speed
15 13 12 11 10 9 9 8 7 7 7 7 7 7 6 7 9 7 7 9 10 10 10 10 9 8 7 6 6 6 5 4 4 5 6 6 5 6 8 7 2 2 2 2 2 2 2 2 0 2 4 5 7 7 4 4 6 6 6 8 8 8 7
14 14 14 12 10 9 9 8 8 7 8 8 9 8 8 9 10 9 9 9 9 9 8 8 8 8 7 7 8 7 6 5 3 2 3 3 2 2 6 8 5 2 3 4 3 2 3 2 0 1 4 7 12 16 12 5 0 3 4 6 7 6 5
17 16 15 13 11 10 10 9 8 8 8 9 10 11 11 12 11 10 9 8 8 8 7 7 7 7 7 7 8 8 9 9 8 7 5 4 2 2 3 5 4 3 4 4 5 4 4 4 3 1 4 5 8 15 20 18 12 6 3 4 6 6 5
20 18 16 16 14 13 11 10 9 8 8 9 10 12 12 11 10 9 8 8 9 8 8 7 6 5 6 7 8 9 10 11 11 10 10 9 7 7 6 4 5 6 5 6 7 7 6 5 3 2 4 5 6 11 18 22 21 17 11 7 4 3 4
21 19 19 18 16 14 13 12 10 9 9 10 11 11 11 10 8 7 8 10 10 9 8 7 6 5 6 7 8 9 10 10 10 9 10 11 10 11 10 9 8 8 8 8 7 7 7 6 5 3 3 5 5 7 11 16 21 23 22 19 16 13 9
22 19 19 19 17 16 14 13 12 11 10 11 11 12 11 9 7 7 9 11 12 11 10 9 8 7 6 6 7 8 9 8 7 7 8 9 9 9 10 9 9 8 9 8 6 6 6 5 6 5 3 4 4 5 8 11 14 17 21 22 21 19 17
23 19 18 17 17 16 14 14 13 12 11 11 12 13 12 10 8 8 10 11 11 12 12 11 9 8 7 7 7 7 7 7 7 8 9 9 8 8 8 8 9 9 9 8 7 8 8 8 9 7 4 4 4 5 6 9 12 13 14 16 19 19 18
22 19 17 16 16 16 14 14 14 12 12 11 12 13 12 11 9 9 9 10 11 11 11 11 10 9 9 9 8 8 8 7 7 8 9 9 8 8 7 7 9 10 10 9 9 10 10 10 12 11 7 4 3 4 4 6 11 14 12 11 15 18 17
22 18 16 16 16 15 14 14 14 12 11 11 12 13 13 12 11 10 10 9 10 10 10 10 9 9 8 9 9 9 9 7 6 8 8 7 8 8 7 7 9 12 12 11 10 10 11 11 11 12 12 8 4 1 3 4 6 11 14 13 14 17 17
22 18 16 17 16 15 14 13 13 12 11 12 12 12 13 13 12 12 10 9 9 9 9 8 7 8 8 9 9 9 10 8 7 8 7 6 7 7 7 8 9 11 11 10 10 10 10 11 11 11 13 12 9 4 2 4 3 4 12 15 15 15 16
23 17 14 15 15 15 15 13 13 13 12 13 13 12 12 12 13 13 12 11 10 9 9 8 7 7 7 9 9 9 10 9 8 8 6 6 6 6 7 8 8 9 9 8 9 9 9 9 9 10 11 11 11 8 5 3 2 4 9 14 15 15 16
25 18 15 17 17 16 16 15 14 13 13 14 14 13 12 11 12 13 14 13 11 10 10 8 8 8 8 9 9 10 9 8 8 8 7 6 7 7 7 7 6 6 6 6 7 7 7 8 7 8 9 9 9 10 7 5 2 5 8 11 13 14 15
26 20 18 19 18 17 17 17 16 16 15 15 15 15 14 12 12 13 14 14 13 12 11 10 9 8 8 8 8 9 9 8 8 8 8 7 7 7 6 6 6 5 4 3 4 6 7 8 7 7 8 8 9 9 8 7 4 3 6 9 11 13 15
26 22 20 19 19 18 19 19 19 18 18 17 16 16 16 14 13 12 13 13 14 13 12 11 10 9 8 7 7 7 7 7 7 7 7 7 7 6 5 5 5 5 4 3 2 3 5 6 6 7 7 7 9 9 9 8 6 3 4 7 11 13 15
25 22 21 20 19 18 20 22 21 21 22 21 19 18 17 16 14 13 12 12 12 13 13 12 11 11 10 9 8 7 7 7 7 6 6 7 6 5 3 3 4 3 3 3 2 2 3 4 4 5 7 7 8 9 10 10 8 5 5 8 10 13 16
23 22 22 22 19 18 21 22 22 22 24 23 23 22 20 18 16 14 13 11 11 12 12 13 13 12 11 10 10 9 8 8 8 7 7 7 7 5 4 3 2 2 1 1 2 2 1 2 3 4 6 7 8 9 9 11 11 9 9 9 10 14 17
22 22 23 23 20 18 20 21 21 21 22 23 24 23 21 20 19 17 15 13 12 11 12 13 14 14 13 12 11 10 10 9 9 9 8 8 8 7 6 5 4 3 2 1 1 0 1 1 2 3 5 6 7 9 9 10 10 10 11 11 11 13 16
21 22 22 21 18 17 18 19 21 21 22 24 24 21 18 17 18 19 17 15 13 13 13 13 15 15 14 14 13 12 11 11 10 10 11 10 10 9 9 7 6 6 5 4 3 3 2 1 2 3 4 6 7 8 9 9 10 10 11 13 13 14 16
19 20 21 21 20 20 19 19 21 23 24 24 23 22 19 20 22 24 21 17 15 14 14 14 16 17 16 15 15 15 14 13 12 12 12 13 13 12 12 11 9 8 8 7 6 5 4 3 2 3 3 4 6 8 8 8 9 10 10 12 13 16 19
17 17 18 19 20 20 18 19 21 24 24 23 22 22 22 23 26 27 25 21 19 18 17 17 18 19 18 18 18 18 18 17 16 15 15 14 15 15 14 13 13 12 11 10 8 6 5 4 3 3 3 4 5 7 7 7 8 8 10 12 14 17 18
16 16 16 16 16 16 17 20 21 21 20 20 20 18 18 21 23 23 22 22 21 20 19 18 18 18 18 18 19 20 21 21 20 19 18 17 17 17 17 16 15 15 14 13 11 8 7 6 5 4 3 3 5 6 5 5 6 6 8 11 14 16 18
16 15 16 16 15 16 18 18 19 19 20 20 19 16 17 21 22 21 20 19 18 17 17 17 18 18 18 19 20 20 21 23 24 23 21 20 20 20 19 18 18 17 16 15 13 10 8 7 6 5 4 3 4 5 4 4 4 4 7 10 12 15 17
13 13 15 17 17 19 19 19 19 20 20 20 20 19 22 24 22 20 19 18 17 17 17 18 18 18 18 19 18 18 18 21 23 24 24 23 22 22 22 21 20 19 18 16 14 12 10 8 7 6 5 4 4 4 3 2 2 3 6 9 10 12 14
12 13 15 16 17 18 19 18 17 17 16 16 18 21 23 23 19 17 16 16 16 16 15 14 13 14 14 15 16 16 16 17 18 21 23 24 24 25 24 24 23 21 20 18 16 13 10 8 6 5 5 6 5 4 3 3 2 2 5 7 7 8 9
14 16 17 16 14 14 14 13 12 12 12 12 13 14 14 14 12 11 10 10 10 9 8 8 8 9 11 12 13 14 15 16 17 18 20 22 24 25 26 26 25 23 21 19 17 13 10 8 6 5 7 7 7 6 5 4 3 3 4 5 6 7 8
14 15 15 14 12 11 11 10 8 7 6 5 4 3 3 3 3 3 4 4 5 5 5 5 6 7 7 8 8 10 11 14 16 17 19 21 22 23 25 26 26 24 22 19 16 12 9 7 6 7 8 8 8 6 6 5 5 5 6 6 7 8 8
8 9 9 9 9 9 9 8 7 6 5 4 3 3 2 2 1 1 2 3 3 4 5 6 6 5 5 5 5 6 7 9 11 13 15 17 19 21 22 24 26 25 22 18 15 11 9 8 8 8 8 8 7 7 7 7 7 7 8 8 9 9 10
4 6 7 8 8 8 8 6 5 4 2 2 2 2 3 3 2 2 2 3 4 5 6 6 6 4 4 5 5 6 7 9 11 11 13 14 16 18 20 22 24 23 21 18 14 11 9 9 9 9 8 8 8 9 9 9 9 9 10 10 11 11 11
5 7 7 7 6 6 5 4 3 2 1 1 2 3 3 4 4 4 5 5 5 6 6 7 6 6 6 6 7 7 7 8 9 9 10 11 12 14 16 18 19 20 18 15 12 10 9 9 9 9 9 10 10 10 10 10 9 10 10 11 12 12 13
6 7 8 7 6 5 4 3 3 2 1 2 4 5 5 6 7 7 8 8 8 8 8 8 8 8 8 7 7 7 7 6 5 5 5 6 7 9 11 13 15 16 14 12 11 11 10 10 10 11 11 11 11 10 9 8 9 10 11 12 12 14 15
7 8 10 9 7 6 5 5 5 4 4 6 7 8 7 8 9 11 11 11 11 11 10 11 11 9 9 9 8 7 6 4 3 4 5 7 8 10 11 12 12 11 11 10 11 11 10 10 11 11 10 10 9 9 9 9 10 11 11 13 13 14 15
6 8 10 10 9 8 7 7 6 6 6 7 7 8 7 8 10 13 15 15 14 12 11 12 13 11 9 8 7 5 4 3 5 7 9 10 11 11 11 10 9 9 9 9 9 9 8 8 8 7 7 7 8 9 10 11 12 13 14 15 15 15 15
4 5 6 7 7 7 7 6 6 7 7 7 7 7 7 7 8 11 15 16 14 13 12 12 12 11 8 7 6 5 5 6 9 11 12 12 11 10 10 9 8 7 7 7 6 6 5 5 5 5 6 7 8 9 10 11 12 13 14 14 14 15 15
6 6 5 5 5 5 4 4 5 7 8 8 8 8 8 7 7 8 11 13 12 11 11 10 10 9 7 6 7 7 8 10 11 12 13 12 11 10 9 8 7 5 4 4 4 3 3 3 4 5 6 7 7 8 9 10 10 11 11 12 12 13 13
10 9 8 7 6 4 3 2 2 3 6 9 9 8 8 7 6 6 8 9 10 9 8 7 7 7 6 7 8 9 10 11 11 12 12 12 11 10 9 8 7 6 4 3 2 2 3 4 5 5 5 5 6 7 8 8 9 10 10 12 13 14 16
12 11 9 8 7 6 4 3 3 3 4 8 9 8 8 7 6 4 4 6 7 6 6 5 6 6 7 7 9 9 9 9 10 10 10 10 10 9 8 8 6 5 3 2 3 4 5 5 5 4 4 5 6 7 8 8 9 11 13 14 16 18 19
13 13 12 11 10 8 7 6 5 5 5 8 10 10 10 8 7 5 3 3 4 5 6 6 6 7 7 8 9 9 9 10 10 9 8 9 9 9 8 6 5 3 3 3 4 4 4 3 3 4 4 5 5 6 8 9 11 12 14 16 17 18 19
Wind_Direction
183 173 168 168 167 165 161 158 153 133 123 123 124 131 142 137 130 124 126 135 132 125 124 120 111 103 103 109 126 154 182 200 213 209 197 197 209 214 204 194 180 133 115 91 115 127 132 146 51 80 84 75 64 40 8 274 255 252 242 233 242 253 253
177 165 162 169 175 179 178 174 169 151 129 118 118 129 138 133 129 127 124 129 131 128 130 128 118 109 101 100 107 116 130 135 132 143 153 166 199 224 198 192 190 149 94 77 78 80 94 107 94 3 40 62 56 49 57 79 176 263 251 241 247 260 260
169 163 162 169 176 179 177 171 168 161 145 128 121 126 132 131 128 127 126 129 133 131 130 128 119 108 97 95 102 104 104 100 94 95 93 94 110 127 159 177 162 117 82 70 67 62 69 75 85 46 21 41 44 47 58 65 65 58 0 295 278 291 295
170 166 164 167 172 175 174 170 168 164 155 147 138 132 132 131 127 121 121 126 131 132 130 126 119 106 94 94 102 105 102 95 89 89 86 82 87 97 102 105 99 91 80 72 63 61 71 72 73 36 16 45 58 52 58 60 61 62 56 46 31 5 346
175 171 168 169 174 179 178 175 176 170 159 156 155 149 142 137 131 121 118 117 118 120 120 118 110 103 105 106 107 107 105 101 98 95 90 85 84 88 95 94 91 87 80 74 65 63 72 78 89 84 29 51 69 61 62 64 63 62 63 66 66 64 58
178 175 173 175 180 185 186 183 183 181 173 165 163 162 156 152 147 134 125 115 108 106 104 103 98 96 109 120 119 113 107 104 105 106 100 94 87 87 93 95 91 85 77 69 61 61 63 68 76 73 59 68 80 78 66 64 67 66 63 62 61 61 61
180 179 179 180 184 190 194 194 193 192 190 180 170 167 164 164 161 147 133 121 111 106 100 98 98 96 102 115 127 125 114 109 108 107 105 100 94 91 93 95 87 78 72 67 63 62 61 62 57 46 57 82 72 74 72 65 66 63 57 55 53 52 56
185 181 182 186 188 194 201 202 202 204 204 193 179 172 170 173 171 157 145 130 122 116 107 104 104 105 104 106 117 125 121 119 113 107 105 100 95 90 88 88 83 79 78 78 77 71 65 64 58 47 51 83 68 38 46 63 61 51 44 47 46 44 48
189 183 185 191 193 199 207 210 211 213 211 200 187 179 177 180 178 167 159 146 136 129 120 115 113 114 114 110 113 117 122 130 126 115 111 103 92 86 85 88 88 87 86 85 84 78 69 65 64 55 50 61 85 46 11 31 47 43 37 37 37 37 41
195 187 189 195 197 205 211 214 217 218 215 205 195 189 186 187 186 179 173 163 154 146 136 131 129 126 123 122 121 117 122 134 136 127 120 110 95 83 85 94 95 91 89 87 81 76 70 64 64 62 54 51 61 88 75 21 358 25 32 29 28 27 29
200 187 193 203 202 210 215 216 219 218 213 207 203 199 195 195 193 190 188 181 173 167 160 154 152 151 144 138 135 127 126 136 142 139 134 121 104 87 84 91 91 88 87 85 77 70 67 63 59 57 54 50 54 67 89 65 9 11 23 25 28 22 15
203 187 193 207 207 210 214 216 218 217 211 208 208 206 203 203 200 196 195 193 187 183 182 179 174 170 165 159 152 144 140 144 148 148 149 143 126 113 100 91 84 81 80 74 67 60 57 57 53 52 52 54 58 58 63 80 55 3 13 21 25 18 9
205 192 192 203 207 210 214 217 219 220 216 211 210 208 206 206 203 197 197 198 197 195 194 194 192 188 181 175 170 163 157 157 158 154 157 159 149 140 125 105 96 88 76 69 64 60 58 57 58 64 61 57 61 54 48 66 74 10 16 18 14 10 5
206 198 192 198 206 213 218 221 222 223 223 218 215 212 209 208 205 200 196 197 201 203 204 202 200 200 198 192 187 182 178 174 171 163 164 168 163 159 146 121 116 102 76 69 73 67 66 66 63 64 59 48 47 42 33 42 54 51 26 11 6 5 3
207 201 194 195 206 217 223 225 227 228 229 226 222 218 214 210 207 203 199 200 205 210 213 212 207 206 206 205 202 200 202 198 191 184 180 180 176 178 179 150 139 124 87 72 78 79 70 70 60 52 49 38 32 30 22 21 25 27 16 8 3 359 360
208 203 199 197 204 218 227 231 232 232 232 231 228 225 223 218 212 207 204 205 210 216 221 221 219 217 215 213 211 211 217 219 217 212 201 196 197 199 201 200 189 165 121 68 69 80 83 73 53 43 43 32 25 25 18 12 13 12 7 4 2 360 0
204 203 201 201 206 219 231 237 237 236 237 236 233 231 230 227 222 218 215 216 219 223 226 227 228 227 225 225 223 222 224 225 229 231 225 218 217 215 214 220 224 219 231 263 274 26 36 38 31 31 30 24 21 19 13 9 9 8 3 358 359 2 3
201 199 199 202 208 221 235 242 241 239 241 239 236 238 246 250 244 234 230 231 230 233 234 236 239 239 237 236 235 235 235 233 235 238 237 235 233 232 231 231 231 227 232 240 236 239 265 304 337 357 7 11 12 7 4 3 3 4 4 3 360 357 358
195 195 196 199 205 215 227 235 235 233 235 236 235 235 244 255 253 244 241 240 240 242 242 244 246 247 247 246 245 245 243 242 241 241 242 241 239 240 240 240 243 237 234 235 231 230 236 250 282 312 334 348 353 353 352 356 360 2 7 10 5 358 357
191 190 196 202 209 217 224 228 228 228 230 235 238 238 240 242 243 244 245 245 245 246 246 248 252 252 254 255 254 253 250 249 247 243 244 244 241 242 241 241 245 245 243 241 238 237 237 240 261 280 297 322 337 342 343 347 352 359 8 11 7 1 358
199 194 198 207 216 222 227 231 233 233 235 237 238 239 239 238 240 247 253 251 249 250 249 249 253 256 260 262 262 260 258 255 252 247 245 245 244 243 242 241 243 246 246 242 238 240 238 237 248 251 260 307 332 339 344 347 352 3 9 9 6 2 357
201 202 209 216 220 219 221 230 236 239 242 244 241 237 237 244 251 256 256 252 248 248 249 250 253 259 264 265 265 265 262 258 254 251 249 248 246 244 242 242 242 243 243 239 235 234 229 229 237 238 246 289 325 336 342 345 352 3 8 6 4 359 353
201 207 214 222 225 222 223 229 235 240 245 248 248 240 235 242 254 257 255 255 254 254 256 260 263 266 266 266 266 265 263 261 257 254 252 250 249 247 244 243 243 242 239 235 230 227 223 224 228 238 262 289 307 320 321 312 321 343 357 360 358 354 349
209 213 217 222 225 224 225 228 232 239 243 244 243 234 226 231 243 249 252 257 258 259 263 267 270 269 266 266 266 264 262 261 259 256 255 252 251 250 247 243 240 238 233 227 223 219 218 218 224 246 280 297 304 309 304 280 269 306 336 342 341 341 337
197 202 206 211 214 217 220 224 229 234 234 232 232 227 222 227 237 244 252 259 261 265 272 282 284 279 275 271 269 266 262 259 259 258 258 256 255 254 249 243 237 233 228 221 213 208 208 214 230 262 286 297 303 309 310 297 280 286 305 313 315 319 320
193 196 200 205 210 214 216 217 214 207 199 190 185 184 193 210 231 259 282 287 283 278 276 283 290 290 291 289 281 274 270 267 265 262 261 261 259 257 252 242 233 227 221 213 205 205 211 221 239 262 279 290 297 303 302 292 279 278 287 295 303 310 312
189 194 195 194 193 189 185 180 170 157 142 126 108 92 80 61 38 341 317 306 289 273 262 266 279 289 298 306 304 296 290 284 278 270 264 262 262 260 253 241 229 220 210 202 203 212 220 228 242 257 270 282 289 291 290 285 278 275 277 285 293 300 303
174 178 169 162 160 160 162 163 158 151 132 98 63 42 36 21 5 341 318 300 287 281 273 269 272 282 299 307 308 307 302 292 285 276 266 262 260 257 250 239 228 218 208 203 209 221 228 235 245 253 263 272 277 281 282 281 278 274 275 282 290 297 302
172 172 166 164 165 166 171 177 175 173 145 58 12 3 358 345 338 334 323 310 299 293 288 281 274 275 287 298 304 310 308 296 289 282 270 262 258 251 245 236 224 213 205 204 211 221 226 231 240 249 258 264 269 273 275 274 272 273 279 287 294 299 300
193 191 192 194 196 202 214 225 223 225 272 330 340 344 345 343 336 330 326 322 313 303 294 287 281 278 283 290 299 311 314 303 288 275 256 240 231 223 217 212 206 201 200 202 206 212 219 227 238 249 254 256 260 263 265 270 275 282 289 294 297 299 299
227 217 210 209 215 229 244 250 251 256 276 299 314 323 331 341 340 333 329 324 316 308 297 285 276 273 277 282 289 303 311 296 253 225 203 186 185 186 184 186 192 198 200 202 205 210 220 233 242 246 248 251 255 260 264 273 281 288 293 296 297 297 297
245 226 216 218 225 227 227 229 234 247 264 278 288 297 307 322 331 332 331 325 320 315 303 285 272 264 262 269 274 281 278 236 189 183 182 174 172 176 177 177 182 191 198 202 208 217 227 238 244 246 252 261 270 276 279 286 292 295 297 298 299 299 300
251 228 216 216 215 211 214 221 235 250 259 259 262 266 274 286 305 322 328 326 323 320 306 287 271 259 252 250 249 239 223 202 182 175 176 175 172 171 170 171 173 182 196 205 214 227 236 246 254 260 269 278 283 286 288 293 297 299 300 301 302 304 305
250 249 239 224 213 210 218 233 246 252 246 241 240 242 246 260 286 315 329 328 324 319 306 287 269 256 243 229 223 218 208 199 191 184 179 177 177 175 171 170 164 160 171 183 193 215 235 251 266 274 281 285 286 286 290 295 297 299 302 303 304 305 305
250 251 247 237 225 214 209 220 260 264 243 234 231 229 237 254 279 311 331 330 322 313 300 279 259 246 230 213 211 214 210 203 198 194 185 175 172 171 167 164 159 154 160 175 195 232 266 282 287 290 290 287 286 291 297 302 304 305 307 308 309 309 309
240 236 232 227 221 216 215 231 275 292 252 237 233 234 241 251 263 289 323 324 310 297 281 258 236 224 218 211 207 209 211 206 201 202 195 182 173 170 166 163 165 173 193 234 275 291 302 301 290 284 282 282 288 298 303 306 307 308 310 311 312 312 313
232 230 228 226 224 223 229 245 268 279 262 247 242 242 242 243 245 254 271 280 271 254 235 224 214 206 205 206 204 202 202 198 195 199 197 183 174 171 167 168 178 205 247 285 304 307 307 294 277 277 284 291 299 307 310 312 314 315 315 315 315 314 314